Tracking 19794 objects as of 22-Jul-2019
HD Live streaming from Space Station
objects crossing your sky now

NAVSTAR 9 (USA 1)

Track NAVSTAR 9 (USA 1) now!
NAVSTAR 9 (USA 1) is classified as:


NORAD ID: 15039
Int'l Code: 1984-059A
Perigee: 20,402.7 km
Apogee: 21,486.5 km
Inclination: 62.3 °
Period: 748.8 minutes
Semi major axis: 27315 km
RCS: 0.4653 m2 (medium)
Launch date: June 13, 1984
Source: United States (US)
Launch site: AIR FORCE WESTERN TEST RANGE (AFWTR)
aabbcc
Your satellite tracking list
Your tracking list is empty




NASA's NSSDC Master Catalog

Two Line Element Set (TLE):
1 15039U 84059A   19201.79034031  .00000017  00000-0  00000+0 0  9991
2 15039  62.2919 137.7971 0198395  37.7186 334.5415  1.92303424249605
Source of the keplerian elements: AFSPC